ZHONGXING-11

Last updated on Thu Oct 30 2025 00:02:49 GMT+0000 (Coordinated Universal Time)

1 39157U 13020A 25302.57818192 -.00000281 00000+0 00000+0 0 9994 2 39157 0.0076 121.8832 0001904 105.3485 117.0078 1.00272737 45580
UTC large
Height (km)
Speed (km/s)
/
Latitude / Longitude
Inclination (degrees)
Orbital Period (minutes)
Azimuth
Elevation
Range (km)
Doppler Factor

Next 0 passes for location: London (51.5072 / 0.1276)

Sorry there are no passes over London.